THOR ABLESTAR R/B, 893

Orbit data source: Space-Track

THOR ABLESTAR R/B, 893 is space debris in LEO originally from a launch on Tue, 06 Oct 1964 UTC launched from the Air Force Western Test Range (AFWTR). Debris objects in space refer to the collection of defunct objects orbiting the Earth. Examples of debris include non-operational satellites, rocket bodies, and fragments generated from explosions, collisions, or faulty payload assembly.

Loading next visibility...
Identifier
893, 1964-063A
Orbit
LEO
Country
Flag of USUS
Related business
Manufacturer
Aerojet
Mission
Spacecraft
Bus & Motor
ABLESTAR, Unknown motor
Mass
~600 kg wet, 600 kg dry
Launch date (UTC)
1964-10-06 (62 years ago)
Launch vehicle
Unknown
Launch site
Air Force Western Test Range (AFWTR)
Object type
Payload
Rocket body
Debris
Shape & HBR
CYL, 1.1 m
Radar Cross Section
Large (>1 m²)

Expand to show TLE details & history
Last TLE update: 15 hours ago

TLE from 15 hours ago
0 THOR ABLESTAR R/B
1 00893U 64063A   26265.02392810  .00000060  00000-0  73004-4 0  9999
2 00893  90.2251  77.4392 0024021 303.0251 173.7615 13.56326206 65102
Epoch: 2026-09-22T00:34Z
TLE epoch observation values (Epoch: 2026-09-22T00:34:27.387Z)
Latitude
63.26777°
Longitude
-111.62561°
Altitude
1,077.778 km
Speed
7.31 km/s
True Right ascension
17h 11m 32s
True Declination
63° 08' 07"
Sunlit
Object was in daylight at epoch
Visualization orbit readout
Latitude
Unknown
Longitude
Unknown
Altitude
Unknown
Speed
Unknown
Apparent Right ascension
Unknown
Apparent Declination
Unknown
Sunlit
N/A
Visualization observer readout
Local Sidereal Time
09:02:39
Azimuth
Unknown
Elevation
Unknown
Doppler factor
Unknown
Orbital elements
Apogee altitude
1,063.948 km
Perigee altitude
1,028.28 km
Semi-major axis
7,424.251 km
Eccentricity
0.0024
Inclination
90.2251°
RAAN
77.4392°
Arg. of periapsis
303.0251°
True anomaly
173.79132°
Mean anomaly
173.7615°
Eccentric anomaly
173.77642°
Mean motion
3.39285 °/min
Orbital period
106.11 mins
BSTAR
0.000073004
Loading maneuver chart data...
Computing Atmospheric mass density...
Loading historical data...
Loading historical data...
Loading historical data...
Loading historical data...
Loading historical data...
Loading historical data...
Loading historical data...
Other satellites on launch #63 in the year 1964 (1964-10-06 UTC)

Documentation

Showing up to 5 results
|